Dewpoint
48 51 53 54 55 57 60 61 61 62 65 66 66 67 68 69 70 70 70 70 70 70 69 68 69 68 68 67 66 67 66 67
45 46 50 52 52 52 54 55 57 55 56 58 63 64 67 68 68 69 69 70 69 69 69 68 68 68 67 66 66 66 67 66
43 44 46 48 47 48 50 52 52 51 51 52 54 59 64 66 67 68 69 69 69 69 68 68 67 67 67 66 65 66 67 66
41 43 43 44 41 48 48 48 48 48 48 50 50 53 57 62 66 67 68 68 68 68 68 67 67 67 68 66 66 67 66 66
40 41 43 43 43 43 43 45 45 45 47 48 48 49 52 54 60 65 67 68 68 68 68 68 67 67 66 67 67 67 67 66
40 40 41 42 40 40 42 42 43 43 44 47 46 46 48 49 51 55 64 67 67 68 68 68 68 68 67 66 66 66 66 66
39 40 41 40 41 40 41 42 42 44 43 45 45 44 46 46 47 48 51 58 65 67 67 67 68 67 66 66 65 65 66 66
39 40 40 40 39 41 41 41 41 42 42 43 45 45 45 45 46 46 47 50 57 61 66 66 67 67 66 65 65 66 67 67
38 38 40 40 40 40 40 40 41 41 41 43 44 45 45 46 45 45 46 47 51 53 57 66 66 66 65 64 65 66 66 66
37 37 39 40 40 39 38 39 40 40 41 42 44 44 45 45 44 45 46 47 48 50 53 57 65 65 64 65 66 66 66 66
36 38 38 39 40 39 40 41 39 40 41 41 43 44 45 44 44 45 47 46 48 50 51 53 57 64 64 64 64 65 65 64
35 36 38 39 39 38 38 38 39 39 40 40 43 43 43 43 43 45 46 45 46 48 49 51 53 56 63 63 64 64 65 65
33 34 36 36 35 35 35 36 37 38 39 41 42 42 43 43 43 43 45 44 45 44 46 49 51 54 61 62 63 64 64 64
32 32 34 35 34 35 35 36 37 38 39 40 42 42 42 42 43 43 44 45 45 45 45 44 49 52 56 59 57 60 62 63
31 32 33 34 35 34 34 34 35 35 37 38 39 41 42 42 42 42 43 44 46 46 46 45 44 49 52 56 55 55 58 61
31 32 32 32 34 34 34 33 32 34 36 37 38 40 41 41 41 41 43 43 45 46 45 46 46 45 50 53 59 58 57 56
31 31 31 32 33 34 33 33 34 35 35 37 38 38 39 40 41 41 41 42 43 45 46 46 47 46 46 49 53 59 59 58
30 30 30 32 33 33 34 34 34 34 35 35 35 36 37 39 39 40 40 41 42 43 45 45 46 47 46 48 50 52 55 58
29 30 29 30 32 33 33 34 35 34 34 33 34 35 36 38 38 39 39 40 42 43 43 44 45 46 47 48 48 52 52 56
30 30 29 30 31 32 32 34 32 33 33 33 33 34 35 36 37 37 39 39 39 41 42 43 45 47 48 49 48 51 54 52
Lifted_Index
-0 -0 -0 -1 -1 -2 -2 -2 -2 -1 -1 -1 -1 -2 -3 -3 -4 -4 -5 -5 -5 -5 -4 -4 -4 -3 -3 -2 -2 -2 -2 -1
2 2 2 2 2 1 1 1 0 -0 -1 -1 -1 -1 -2 -3 -4 -4 -4 -5 -5 -5 -4 -4 -4 -3 -3 -2 -2 -2 -2 -1
6 6 6 7 7 7 6 6 5 4 3 2 1 -0 -1 -2 -3 -3 -4 -4 -5 -5 -4 -4 -4 -4 -4 -3 -2 -2 -2 -1
9 9 9 10 10 10 10 10 10 9 8 7 5 3 2 0 -1 -3 -3 -4 -5 -5 -5 -5 -5 -5 -4 -4 -3 -3 -2 -2
10 10 11 12 12 12 12 12 12 12 11 11 10 8 7 4 2 -1 -3 -4 -5 -5 -5 -5 -5 -5 -5 -4 -3 -3 -3 -2
10 11 12 13 13 13 13 13 13 12 12 12 11 11 10 8 6 3 -0 -3 -4 -5 -5 -6 -6 -5 -5 -4 -3 -3 -3 -3
11 12 13 13 13 13 13 13 13 13 12 12 12 11 11 10 9 7 4 0 -2 -4 -5 -5 -5 -5 -5 -4 -4 -3 -3 -3
12 12 12 12 13 13 14 14 13 13 13 12 12 11 11 10 10 9 8 5 1 -2 -4 -5 -5 -5 -5 -4 -4 -4 -4 -4
12 12 12 12 12 13 13 13 13 13 12 12 11 11 10 10 9 9 9 8 6 2 -1 -4 -5 -5 -5 -5 -5 -5 -4 -4
12 12 12 12 12 13 13 13 13 12 12 11 11 10 10 9 9 9 9 9 8 6 3 -1 -4 -4 -5 -5 -5 -5 -5 -4
12 12 12 12 13 13 13 13 13 12 12 11 10 10 10 9 9 9 9 9 9 8 6 2 -1 -3 -4 -5 -5 -5 -5 -4
13 13 13 13 14 14 13 13 13 12 12 11 11 10 10 9 9 8 8 9 8 8 7 6 2 -1 -3 -4 -4 -5 -4 -4
13 13 13 14 14 14 13 13 13 13 12 12 11 10 10 9 9 8 8 8 8 8 8 8 5 2 -1 -3 -3 -4 -4 -4
13 13 14 14 14 14 14 13 13 13 13 12 12 11 10 10 9 8 8 7 7 8 8 8 7 5 2 -1 -2 -3 -4 -4
13 14 14 14 14 14 14 14 14 13 13 13 12 12 11 10 9 9 8 8 7 7 7 7 7 6 4 1 -1 -3 -3 -3
14 14 14 14 14 14 14 14 14 14 14 13 13 12 11 11 10 9 9 8 7 7 7 7 7 7 5 3 0 -2 -3 -3
14 14 14 14 14 14 14 14 14 14 14 13 13 13 12 12 11 10 9 8 8 7 7 7 7 8 7 5 3 0 -2 -2
14 14 14 14 14 14 14 14 14 14 14 13 13 13 13 12 11 10 9 8 8 8 7 7 7 7 8 7 5 2 -0 -1
14 14 14 14 14 14 14 14 14 14 14 14 14 14 14 13 12 10 9 8 8 8 8 7 7 7 8 7 6 4 2 0
14 14 14 14 15 15 14 14 14 14 14 14 14 14 14 14 12 11 10 9 8 8 8 8 8 7 8 7 7 5 3 2